This is the latest recevied weather packets stored in our database for station/object N5RPG. If no packets are shown the sender has not sent any weather packets the latest 10 day(s).
| Time | Temp. | Humidity | Pressure | Rain* | Wind** | Luminosity | Snow |
|---|---|---|---|---|---|---|---|
| 1777998261 | 23.89° C | 81% | 1008.7 hPa | 0 mm | - | 325 W/m² | - |
| 1777997958 | 23.33° C | 83% | 1008.8 hPa | 0 mm | - | 209 W/m² | - |
| 1777997655 | 23.33° C | 83% | 1008.9 hPa | 0 mm | - | 255 W/m² | - |
| 1777997352 | 22.78° C | 83% | 1008.8 hPa | 0 mm | - | 185 W/m² | - |
| 1777997050 | 22.78° C | 84% | 1008.8 hPa | 0 mm | - | 188 W/m² | - |
| 1777996747 | 22.78° C | 84% | 1008.7 hPa | 0 mm | - | 236 W/m² | - |
| 1777996442 | 22.78° C | 84% | 1008.7 hPa | 0 mm | - | 126 W/m² | - |
| 1777996140 | 22.78° C | 84% | 1008.8 hPa | 0 mm | - | 131 W/m² | - |
| 1777995835 | 22.78° C | 84% | 1008.8 hPa | 0 mm | - | 106 W/m² | - |
| 1777995532 | 22.78° C | 84% | 1008.7 hPa | 0 mm | - | 138 W/m² | - |
| 1777995229 | 22.78° C | 84% | 1008.8 hPa | 0 mm | - | 131 W/m² | - |
| 1777994926 | 22.78° C | 84% | 1008.7 hPa | 0 mm | - | 156 W/m² | - |
| 1777994624 | 22.78° C | 84% | 1008.7 hPa | 0 mm | - | 107 W/m² | - |
| 1777994323 | 22.78° C | 83% | 1008.8 hPa | 0 mm | - | 89 W/m² | - |
| 1777994020 | 22.78° C | 83% | 1008.7 hPa | 0 mm | - | 103 W/m² | - |
| 1777993718 | 22.78° C | 84% | 1008.9 hPa | 0 mm | - | 126 W/m² | - |
| 1777993415 | 22.22° C | 84% | 1008.6 hPa | 0 mm | - | 158 W/m² | - |
| 1777993114 | 22.22° C | 85% | 1008.6 hPa | 0 mm | - | 140 W/m² | - |
| 1777992813 | 22.22° C | 85% | 1008.8 hPa | 0 mm | - | 102 W/m² | - |
| 1777992510 | 22.22° C | 85% | 1008.5 hPa | 0 mm | - | 108 W/m² | - |
| 1777992209 | 22.22° C | 85% | 1008.6 hPa | 0 mm | - | 81 W/m² | - |
| 1777991905 | 22.22° C | 85% | 1008.4 hPa | 0 mm | - | 77 W/m² | - |
| 1777991603 | 22.22° C | 84% | 1008.3 hPa | 0 mm | - | 69 W/m² | - |
| 1777991300 | 22.22° C | 84% | 1008.6 hPa | 0 mm | - | 89 W/m² | - |
| 1777990998 | 22.22° C | 84% | 1008.6 hPa | 0 mm | - | 78 W/m² | - |
* Rain latest hour (hover to see other rain measurements)
** Current wind speed in m/s (hover to see current wind gust speed)